Location: Bemmer
(51.5498°N, 5.6249°E)
Time: 17:51:21
(UTC+00:00)

COSMOS 2428 - Pass Details

Date: 03 March 2021
Orbit: 845 x 858 km, 70.9° (Epoch: 13 April)

Event Time Altitude Azimuth Distance (km) Brightness Sun altitude
Rises 19:17:57 0° 181° (S) 3,393 5.7 -18.8°
Reaches altitude 10° 19:20:33 10° 173° (S) 2,463 4.9 -19.2°
Enters shadow 19:24:47 35° 128° (SE) 1,352 3.3 -19.8°
Exits shadow 19:32:04 - 39° (NE) 2,919 5.3 -20.9°
Sets 19:33:27 0° 35° (NE) 3,425 5.7 -21.1°
